[[{"header":{"parameterUnit":"m.s-1","parameterCategory":1,"la1":30.2991,"la2":30.254,"lo1":-89.0895,"lo2":-89.0444,"dy":0.0017,"dx":0.0017,"nx":28,"ny":28,"refTime":"2024-03-17T03:00:00:Z","depth":0,"parameterNumber":2,"parameterNumberName":"U-component_of_WINDS"},"data":[0,0,0,0,0,0,0,0,0,0,0,0,0,0,0,0,0,0,0,0,0,0,0,0,0,0,0,0,0,0,0,0,0,0,0,0,0,0,0,0,0,0,0,0,0,0,0,0,0,0,0,0,0,0,0,0,0,0,1.4442,1.4443,0,1.4515,1.4516,1.4517,1.4554,1.4554,1.4555,1.4555,1.4626,1.4628,1.463,0,0,0,0,0,0,0,0,0,0,0,0,0,1.4335,1.4337,1.4442,1.4443,1.4444,1.4515,1.4516,1.4517,1.4554,1.4555,1.4555,1.4555,1.4626,1.4628,1.463,0,0,0,0,0,0,0,0,0,0,0,0,0,1.4392,1.4337,1.4442,1.4471,1.4475,1.4515,1.4516,1.4517,1.4554,1.4555,1.4555,1.4555,1.4625,1.4628,1.4631,1.4646,0,0,1.4639,1.464,0,0,0,0,0,0,0,0,1.4388,1.4396,1.4466,1.4469,1.4473,1.4526,1.4504,1.456,1.4554,1.4524,1.4555,1.4555,1.4593,1.4598,1.4612,1.4649,1.4652,1.4639,1.4641,1.4642,1.4643,0,0,0,0,0,0,0,1.4384,1.4393,1.4471,1.4467,1.4471,1.4481,1.4489,1.4515,1.4557,1.4527,1.453,1.4538,1.4595,1.4609,1.4613,1.4653,1.4639,1.4642,1.4643,1.4645,1.4709,1.4709,0,0,0,0,0,0,1.4376,1.4389,1.4469,1.4473,1.443,1.4482,1.4492,1.4509,1.4557,1.4564,1.4538,1.4539,1.4604,1.461,1.4616,1.4638,1.4642,1.4645,1.4646,1.4709,1.4709,1.4709,0,0,0,0,0,0,1.4374,1.4383,1.4466,1.4432,1.4443,1.4484,1.4503,1.451,1.4524,1.4565,1.4573,1.4545,1.4604,1.4612,1.4639,1.4641,1.4646,1.4649,1.4709,1.4709,1.4709,1.4682,0,0,0,0,0,0,1.437,1.4382,1.4388,1.4432,1.4445,1.4487,1.4503,1.4511,1.4529,1.4532,1.4573,1.458,1.4605,1.4634,1.4642,1.4645,1.4651,1.4709,1.4709,1.4709,1.4683,1.4681,1.4679,0,0,0,0,0,1.4366,1.4376,1.4388,1.4397,1.4454,1.4487,1.4495,1.4523,1.4529,1.4536,1.4563,1.4579,1.464,1.4637,1.4645,1.465,1.4709,1.4709,1.4709,1.4683,1.4681,1.4679,0,0,0,0,0,0,1.433,1.4383,1.4396,1.4421,1.445,1.4494,1.4503,1.452,1.4547,1.4548,1.4582,1.4591,1.4615,1.4635,1.4631,1.4668,1.4676,1.4678,1.4654,1.4652,1.465,1.4645,1.4653,0,0,0,0,0,1.4325,1.4349,1.4393,1.4411,1.4424,1.4461,1.4477,1.4497,1.4527,1.4539,1.4568,1.4596,1.4622,1.4638,1.4664,1.4686,1.4696,1.4693,1.4692,1.469,1.4691,1.4706,1.4705,1.471,1.471,1.471,0,0,1.4315,1.4347,1.4359,1.4404,1.4429,1.4452,1.4471,1.4494,1.4512,1.4543,1.457,1.4592,1.4626,1.4651,1.4663,1.4668,1.4692,1.469,1.4689,1.4691,1.4706,1.4705,1.4705,1.471,1.471,1.471,0,0,1.4308,1.4334,1.4352,1.4377,1.4415,1.4439,1.4444,1.4486,1.4502,1.453,1.4555,1.4576,1.4619,1.4643,1.4661,1.4666,1.4682,1.4673,1.4664,1.4678,1.4677,1.4677,1.4679,1.468,1.4674,1.4674,1.4674,0,1.429,1.4327,1.4359,1.4382,1.4401,1.4432,1.4451,1.4473,1.4516,1.4529,1.4535,1.4591,1.4616,1.4648,1.4649,1.4662,1.4668,1.4668,1.4675,1.4675,1.4676,1.4678,1.4679,1.4673,1.4673,1.4673,1.4673,0,1.4303,1.4328,1.4338,1.4381,1.4402,1.4422,1.4458,1.4475,1.4493,1.4518,1.4547,1.4578,1.4612,1.4621,1.4639,1.4655,1.4658,1.4669,1.4678,1.4673,1.4676,1.4677,1.4671,1.4671,1.4672,1.4672,0,0,1.4273,1.4336,1.4339,1.4359,1.4404,1.4424,1.4446,1.4481,1.4495,1.4524,1.4544,1.4581,1.4593,1.4613,1.4634,1.4646,1.4649,1.4656,1.4657,1.4654,1.467,1.4661,1.4661,1.466,1.4661,1.4661,1.4667,0,1.4273,1.4315,1.4346,1.4376,1.44,1.443,1.445,1.448,1.4503,1.4527,1.4553,1.4579,1.4592,1.4605,1.4618,1.4645,1.4652,1.4645,1.4679,1.468,1.4669,1.4663,1.4653,1.4657,1.4668,1.4668,1.4669,0,1.4277,1.4307,1.434,1.4384,1.4395,1.4412,1.4447,1.4469,1.4504,1.452,1.4544,1.4567,1.4592,1.4599,1.4635,1.463,1.4646,1.4661,1.4662,1.4666,1.4673,1.4666,1.4659,1.4659,1.4671,1.467,1.467,0,1.4252,1.4301,1.4328,1.4344,1.4396,1.4407,1.4429,1.4464,1.4483,1.4514,1.4527,1.4559,1.4576,1.4601,1.4632,1.4635,1.4665,1.4674,1.4679,1.4678,1.4683,1.4682,1.4678,1.4694,1.4694,1.4694,1.4694,0,1.4248,1.4267,1.4317,1.4333,1.4356,1.4392,1.4413,1.4437,1.4469,1.449,1.4519,1.4538,1.4578,1.4602,1.4627,1.4653,1.466,1.4675,1.4681,1.4672,1.467,1.4682,1.4682,1.4694,1.4694,1.4694,1.4694,0,1.4223,1.4258,1.4289,1.4336,1.4349,1.4363,1.4404,1.4421,1.4447,1.4474,1.4482,1.4523,1.4554,1.4588,1.4629,1.4646,1.467,1.4679,1.4659,1.4662,1.4665,1.4664,1.4668,1.467,1.4684,1.4684,1.4684,0,1.4218,1.4233,1.4283,1.43,1.4322,1.4349,1.4369,1.4405,1.4425,1.4467,1.4479,1.4512,1.4541,1.4588,1.4621,1.4654,1.4663,1.4663,1.4668,1.4659,1.4664,1.4662,1.4664,1.466,1.466,1.466,1.466,0,1.4204,1.4222,1.425,1.4285,1.4309,1.4338,1.4368,1.438,1.4422,1.4443,1.4476,1.4498,1.4542,1.4574,1.4611,1.4634,1.4654,1.4658,1.4661,1.4651,1.4639,1.4646,1.4654,1.4657,1.4658,1.4658,1.4658,1.4658,1.4189,1.4205,1.4243,1.4274,1.4301,1.4329,1.4348,1.4378,1.4406,1.4444,1.4464,1.4497,1.4533,1.4585,1.4607,1.4633,1.4639,1.4643,1.4644,1.4644,1.4642,1.4636,1.464,1.464,1.464,1.464,1.464,0,1.4177,1.4204,1.4233,1.4275,1.43,1.4318,1.4353,1.4372,1.4401,1.4433,1.4461,1.4499,1.4532,1.4569,1.4603,1.4617,1.4627,1.4625,1.4624,1.4629,1.4634,1.4629,1.4616,1.4616,1.4616,1.4616,1.4616,1.4616,1.4174,1.4202,1.4224,1.4266,1.4293,1.4325,1.4344,1.437,1.4397,1.4438,1.4466,1.449,1.4525,1.4563,1.4594,1.4604,1.4615,1.461,1.4623,1.4627,1.4629,1.463,1.4625,1.4612,1.4612,1.4615,1.4615,1.4615]},{"header":{"parameterUnit":"m.s-1","parameterCategory":1,"la1":30.2991,"la2":30.254,"lo1":-89.0895,"lo2":-89.0444,"dy":0.0017,"dx":0.0017,"nx":28,"ny":28,"refTime":"2024-03-17T03:00:00:Z","depth":0,"parameterNumber":3,"parameterNumberName":"V-component_of_WINDS"},"data":[0,0,0,0,0,0,0,0,0,0,0,0,0,0,0,0,0,0,0,0,0,0,0,0,0,0,0,0,0,0,0,0,0,0,0,0,0,0,0,0,0,0,0,0,0,0,0,0,0,0,0,0,0,0,0,0,0,0,-8.1972,-8.1974,0,-8.2125,-8.2127,-8.2128,-8.1998,-8.1993,-8.1987,-8.1982,-8.2135,-8.2144,-8.2153,0,0,0,0,0,0,0,0,0,0,0,0,0,-8.1565,-8.1573,-8.1972,-8.1974,-8.1976,-8.2125,-8.2127,-8.2129,-8.1999,-8.1993,-8.1986,-8.198,-8.2132,-8.2143,-8.2154,0,0,0,0,0,0,0,0,0,0,0,0,0,-8.1732,-8.1576,-8.1972,-8.1929,-8.1927,-8.2124,-8.2127,-8.2129,-8.2001,-8.1992,-8.1984,-8.1977,-8.2128,-8.2142,-8.2155,-8.2401,0,0,-8.2197,-8.2203,0,0,0,0,0,0,0,0,-8.1723,-8.1747,-8.1933,-8.1932,-8.193,-8.2034,-8.2039,-8.222,-8.2003,-8.1973,-8.1982,-8.1973,-8.2108,-8.2123,-8.2169,-8.2408,-8.2415,-8.2198,-8.2206,-8.2212,-8.2216,0,0,0,0,0,0,0,-8.1711,-8.174,-8.2032,-8.1936,-8.1934,-8.1901,-8.1916,-8.2073,-8.2083,-8.1974,-8.1965,-8.1985,-8.2105,-8.2156,-8.2171,-8.2417,-8.2198,-8.221,-8.2218,-8.2223,-8.2866,-8.2875,0,0,0,0,0,0,-8.1705,-8.1731,-8.2027,-8.2037,-8.1805,-8.1915,-8.1932,-8.2009,-8.2081,-8.2085,-8.1992,-8.1979,-8.2137,-8.2156,-8.2176,-8.247,-8.2212,-8.2225,-8.2233,-8.2857,-8.2868,-8.2878,0,0,0,0,0,0,-8.1696,-8.1732,-8.2021,-8.1882,-8.1916,-8.1931,-8.2019,-8.2016,-8.2067,-8.2095,-8.2096,-8.2043,-8.2131,-8.2157,-8.2347,-8.2473,-8.2231,-8.2243,-8.2847,-8.2861,-8.2873,-8.3059,0,0,0,0,0,0,-8.1685,-8.173,-8.1824,-8.1885,-8.1924,-8.2191,-8.2026,-8.2025,-8.2091,-8.2075,-8.2142,-8.2146,-8.2127,-8.2327,-8.236,-8.2488,-8.2254,-8.2836,-8.2853,-8.2869,-8.3042,-8.3077,-8.3107,0,0,0,0,0,-8.1671,-8.187,-8.183,-8.1866,-8.2042,-8.2198,-8.222,-8.2196,-8.2102,-8.2197,-8.2215,-8.2143,-8.2454,-8.2348,-8.2384,-8.2517,-8.2828,-8.2848,-8.2868,-8.3027,-8.307,-8.3107,0,0,0,0,0,0,-8.1822,-8.1877,-8.1833,-8.2057,-8.2125,-8.2176,-8.2295,-8.2242,-8.2336,-8.2317,-8.2281,-8.2298,-8.2498,-8.2526,-8.2406,-8.2759,-8.2625,-8.2654,-8.2734,-8.2775,-8.2808,-8.2797,-8.2265,0,0,0,0,0,-8.1882,-8.2005,-8.2045,-8.2239,-8.2275,-8.228,-8.2346,-8.2322,-8.2389,-8.2417,-8.2448,-8.2515,-8.2628,-8.2703,-8.2808,-8.3044,-8.3057,-8.3154,-8.3187,-8.3214,-8.3239,-8.3367,-8.3411,-8.2944,-8.2943,-8.2943,0,0,-8.2006,-8.2051,-8.2131,-8.2271,-8.232,-8.2448,-8.2304,-8.2445,-8.2539,-8.2437,-8.2619,-8.2645,-8.2717,-8.2932,-8.3028,-8.2961,-8.3371,-8.3239,-8.3261,-8.3271,-8.3392,-8.3436,-8.3476,-8.2957,-8.2955,-8.2953,0,0,-8.2298,-8.2344,-8.2512,-8.2564,-8.2641,-8.2642,-8.2683,-8.2743,-8.2757,-8.2939,-8.2865,-8.2976,-8.317,-8.3225,-8.3279,-8.3593,-8.3531,-8.3627,-8.38,-8.3925,-8.3962,-8.3994,-8.4107,-8.4148,-8.3652,-8.3653,-8.3653,0,-8.2442,-8.2633,-8.2604,-8.2751,-8.2815,-8.273,-8.2899,-8.2951,-8.3057,-8.3103,-8.3027,-8.3271,-8.3313,-8.354,-8.3617,-8.3662,-8.3707,-8.362,-8.3959,-8.3991,-8.4021,-8.4128,-8.4171,-8.3664,-8.3663,-8.3661,-8.366,0,-8.2807,-8.2941,-8.3066,-8.3174,-8.3251,-8.3409,-8.3402,-8.3484,-8.3453,-8.3463,-8.3649,-8.3698,-8.3812,-8.3863,-8.3833,-8.4086,-8.4043,-8.3964,-8.3829,-8.4078,-8.4178,-8.4219,-8.368,-8.3676,-8.3673,-8.367,0,0,-8.3199,-8.3289,-8.3336,-8.3384,-8.3462,-8.3564,-8.3717,-8.383,-8.3902,-8.3978,-8.4106,-8.4273,-8.4201,-8.4262,-8.4237,-8.4347,-8.4594,-8.4254,-8.4255,-8.4317,-8.4876,-8.4937,-8.4985,-8.4553,-8.456,-8.4566,-8.4871,0,-8.3495,-8.3764,-8.3742,-8.3995,-8.4118,-8.404,-8.4173,-8.4235,-8.4248,-8.4354,-8.4366,-8.4487,-8.4382,-8.4418,-8.4523,-8.4542,-8.4706,-8.4519,-8.4671,-8.4677,-8.4657,-8.5037,-8.5101,-8.5386,-8.491,-8.4916,-8.4921,0,-8.3877,-8.3969,-8.4235,-8.4296,-8.4347,-8.4467,-8.457,-8.4671,-8.474,-8.4742,-8.4811,-8.4768,-8.4921,-8.4782,-8.4993,-8.4867,-8.4927,-8.4946,-8.4956,-8.497,-8.4815,-8.5062,-8.5476,-8.5519,-8.4982,-8.4977,-8.4973,0,-8.4138,-8.4327,-8.4512,-8.4555,-8.463,-8.4717,-8.4752,-8.4813,-8.4883,-8.4971,-8.5016,-8.5121,-8.5179,-8.5261,-8.5247,-8.5147,-8.5463,-8.5322,-8.5468,-8.5469,-8.5539,-8.5535,-8.5969,-8.5576,-8.5576,-8.5575,-8.5574,0,-8.4471,-8.4638,-8.463,-8.4744,-8.4928,-8.49,-8.5083,-8.5107,-8.5163,-8.5279,-8.5216,-8.5326,-8.5301,-8.541,-8.5399,-8.5576,-8.5602,-8.5608,-8.5603,-8.5615,-8.5614,-8.5655,-8.5635,-8.5586,-8.5584,-8.5582,-8.558,0,-8.4794,-8.4796,-8.4992,-8.5048,-8.5066,-8.5199,-8.5246,-8.5353,-8.536,-8.5509,-8.5542,-8.5554,-8.5679,-8.5674,-8.5815,-8.5808,-8.6026,-8.5998,-8.6004,-8.5999,-8.6146,-8.6133,-8.6622,-8.6685,-8.625,-8.6255,-8.6258,0,-8.5008,-8.5135,-8.5205,-8.5279,-8.532,-8.544,-8.5512,-8.5489,-8.5566,-8.5655,-8.5751,-8.5871,-8.5966,-8.617,-8.619,-8.6298,-8.6273,-8.6437,-8.6288,-8.6296,-8.6277,-8.627,-8.6283,-8.6466,-8.6471,-8.6475,-8.6478,0,-8.5388,-8.5382,-8.5488,-8.5596,-8.5683,-8.5766,-8.5841,-8.5905,-8.5891,-8.598,-8.6109,-8.6183,-8.6328,-8.6448,-8.6552,-8.6586,-8.6531,-8.6525,-8.6565,-8.6578,-8.6577,-8.6581,-8.6085,-8.6514,-8.651,-8.6508,-8.6506,-8.6504,-8.5663,-8.5772,-8.584,-8.596,-8.6015,-8.6087,-8.6191,-8.6213,-8.632,-8.6438,-8.6418,-8.6562,-8.6627,-8.6761,-8.6805,-8.6917,-8.6858,-8.6915,-8.693,-8.6945,-8.6963,-8.6559,-8.6935,-8.6934,-8.6933,-8.6932,-8.6931,0,-8.6041,-8.608,-8.6191,-8.63,-8.6395,-8.6336,-8.6417,-8.65,-8.6628,-8.6694,-8.679,-8.6938,-8.7054,-8.7084,-8.7196,-8.7279,-8.7257,-8.7309,-8.7304,-8.7313,-8.7008,-8.6963,-8.7326,-8.7326,-8.7326,-8.7326,-8.7326,-8.7326,-8.6248,-8.6431,-8.6434,-8.6642,-8.668,-8.6822,-8.6874,-8.694,-8.6993,-8.7162,-8.7259,-8.7278,-8.733,-8.7445,-8.7549,-8.7555,-8.7599,-8.7663,-8.7659,-8.7373,-8.7334,-8.7296,-8.7254,-8.7672,-8.7673,-8.7954,-8.7957,-8.7959]}]]